S51W-1 Weather Reports


Display with metric or nautical units.
time (UTC)temp
F
wind
direction
speed
MPH
gust
MPH
rain 1hr
in
rain 24hr
in
rain mn
in
humidity
%
barometer
mb
20260906055903 65 143 5.0 7.0 0.00 0.00 0.00 71 1023.4
20260906055403 65 156 4.0 8.0 0.00 0.00 0.00 71 1023.4
20260906054903 64 181 8.0 8.0 0.00 0.00 0.00 71 1023.3
20260906054402 65 156 4.0 9.0 0.00 0.00 0.00 72 1023.3
20260906053902 64 171 7.0 8.0 0.00 0.00 0.00 72 1023.2
20260906053402 64 165 5.0 10.0 0.00 0.00 0.00 72 1023.3
20260906052901 64 156 5.0 10.0 0.00 0.00 0.00 73 1023.0
20260906052401 65 178 5.0 9.0 0.00 0.00 0.00 72 1023.0
20260906051901 64 175 4.0 9.0 0.00 0.00 0.00 73 1023.0
20260906051401 64 165 4.0 8.0 0.00 0.00 0.00 73 1023.0
20260906050900 64 163 3.0 7.0 0.00 0.00 0.00 73 1022.9
20260906050400 65 167 3.0 10.0 0.00 0.00 0.00 73 1022.9
20260906045900 65 170 4.0 9.0 0.00 0.00 0.00 73 1022.9
20260906045359 64 184 5.0 9.0 0.00 0.00 0.00 73 1022.8
20260906044859 65 165 4.0 8.0 0.00 0.00 0.00 73 1022.8
20260906044359 65 170 4.0 9.0 0.00 0.00 0.00 73 1022.7
20260906043858 65 172 7.0 10.0 0.00 0.00 0.00 72 1022.7
20260906043358 65 161 5.0 10.0 0.00 0.00 0.00 72 1022.7
20260906042858 65 177 7.0 8.0 0.00 0.00 0.00 73 1022.6
20260906042358 65 149 5.0 9.0 0.00 0.00 0.00 73 1022.6
20260906041857 65 161 6.0 11.0 0.00 0.00 0.00 73 1022.6
20260906041357 65 170 8.0 11.0 0.00 0.00 0.00 72 1022.5
20260906040857 65 161 5.0 10.0 0.00 0.00 0.00 72 1022.5
20260906040356 65 151 6.0 11.0 0.00 0.00 0.00 73 1022.5
20260906035856 65 174 4.0 13.0 0.00 0.00 0.00 73 1022.4
20260906035356 65 178 7.0 9.0 0.00 0.00 0.00 72 1022.4
20260906034856 65 153 5.0 9.0 0.00 0.00 0.00 72 1022.3
20260906034355 65 167 4.0 10.0 0.00 0.00 0.00 72 1022.3
20260906033855 65 185 6.0 12.0 0.00 0.00 0.00 72 1022.2
20260906033355 65 158 6.0 9.0 0.00 0.00 0.00 72 1022.3
20260906032854 65 172 6.0 10.0 0.00 0.00 0.00 72 1022.2
20260906032354 66 181 5.0 10.0 0.00 0.00 0.00 72 1022.2
20260906031854 66 170 5.0 10.0 0.00 0.00 0.00 72 1022.2
20260906031354 66 184 8.0 9.0 0.00 0.00 0.00 72 1022.1
20260906030853 66 181 5.0 9.0 0.00 0.00 0.00 72 1022.1
20260906030353 66 156 4.0 10.0 0.00 0.00 0.00 71 1022.1
20260906025853 66 158 6.0 8.0 0.00 0.00 0.00 70 1022.0
20260906025352 66 189 4.0 10.0 0.00 0.00 0.00 70 1022.0
20260906024852 67 164 4.0 8.0 0.00 0.00 0.00 70 1022.0
20260906024352 67 164 4.0 9.0 0.00 0.00 0.00 69 1022.0
20260906023852 67 158 5.0 8.0 0.00 0.00 0.00 68 1022.0
20260906023351 67 164 4.0 10.0 0.00 0.00 0.00 67 1022.0
20260906022851 67 153 4.0 9.0 0.00 0.00 0.00 66 1021.9
20260906022351 67 172 4.0 7.0 0.00 0.00 0.00 66 1021.9
20260906021850 68 170 5.0 8.0 0.00 0.00 0.00 65 1021.7
20260906021350 68 184 5.0 8.0 0.00 0.00 0.00 65 1021.7
20260906020850 68 167 6.0 8.0 0.00 0.00 0.00 66 1021.7
20260906020350 67 154 6.0 7.0 0.00 0.00 0.00 66 1021.9
20260906015849 67 175 4.0 9.0 0.00 0.00 0.00 66 1021.9
20260906015349 67 178 6.0 8.0 0.00 0.00 0.00 67 1021.9
20260906014849 67 163 5.0 9.0 0.00 0.00 0.00 67 1021.9
20260906014348 67 149 5.0 7.0 0.00 0.00 0.00 67 1021.9
20260906013848 67 157 6.0 9.0 0.00 0.00 0.00 68 1021.9
20260906013348 67 174 4.0 9.0 0.00 0.00 0.00 68 1022.0
20260906012847 68 181 6.0 9.0 0.00 0.00 0.00 68 1021.9
20260906012347 67 181 6.0 8.0 0.00 0.00 0.00 68 1021.9
20260906011847 68 182 7.0 11.0 0.00 0.00 0.00 67 1021.9
20260906011347 68 171 4.0 9.0 0.00 0.00 0.00 66 1021.9
20260906010846 68 157 4.0 10.0 0.00 0.00 0.00 65 1021.9
20260906010346 68 167 4.0 9.0 0.00 0.00 0.00 65 1021.7
20260906005846 68 187 6.0 9.0 0.00 0.00 0.00 65 1021.7
20260906005345 68 147 4.0 9.0 0.00 0.00 0.00 66 1021.7
20260906004845 68 157 4.0 8.0 0.00 0.00 0.00 66 1021.6
20260906004345 68 168 5.0 10.0 0.00 0.00 0.00 65 1021.7
20260906003845 68 153 4.0 11.0 0.00 0.00 0.00 64 1021.6
20260906003344 68 182 5.0 8.0 0.00 0.00 0.00 64 1021.6
20260906002844 68 168 4.0 9.0 0.00 0.00 0.00 64 1021.6
20260906002344 68 174 4.0 8.0 0.00 0.00 0.00 64 1021.5
20260906001843 68 181 6.0 7.0 0.00 0.00 0.00 64 1021.5
20260906001343 68 167 4.0 8.0 0.00 0.00 0.00 64 1021.5
20260906000843 69 130 4.0 11.0 0.00 0.00 0.00 65 1021.6
20260906000342 68 165 3.0 9.0 0.00 0.00 0.00 66 1021.6
20260905235842 68 168 4.0 6.0 0.00 0.00 0.00 66 1021.5
20260905235342 69 142 5.0 9.0 0.00 0.00 0.00 65 1021.6
20260905234842 69 163 3.0 8.0 0.00 0.00 0.00 65 1021.5
20260905234341 69 170 6.0 7.0 0.00 0.00 0.00 65 1021.5
20260905233841 69 184 7.0 7.0 0.00 0.00 0.00 64 1021.4
20260905233341 69 170 5.0 8.0 0.00 0.00 0.00 64 1021.4
20260905232840 69 158 4.0 8.0 0.00 0.00 0.00 65 1021.4
20260905232340 69 167 3.0 8.0 0.00 0.00 0.00 64 1021.4
20260905231840 69 184 3.0 9.0 0.00 0.00 0.00 65 1021.4
20260905231340 69 165 4.0 8.0 0.00 0.00 0.00 65 1021.4
20260905230839 69 177 4.0 10.0 0.00 0.00 0.00 66 1021.4
20260905230339 68 172 5.0 9.0 0.00 0.00 0.00 66 1021.4
20260905225839 69 185 7.0 9.0 0.00 0.00 0.00 65 1021.4
20260905225338 69 188 7.0 9.0 0.00 0.00 0.00 65 1021.3
20260905224838 69 182 6.0 8.0 0.00 0.00 0.00 65 1021.3
20260905224338 69 165 4.0 10.0 0.00 0.00 0.00 65 1021.2
20260905223838 69 172 8.0 9.0 0.00 0.00 0.00 65 1021.1
20260905223337 69 171 4.0 9.0 0.00 0.00 0.00 64 1021.1
20260905222837 69 187 5.0 9.0 0.00 0.00 0.00 64 1021.1
20260905222337 69 175 5.0 9.0 0.00 0.00 0.00 64 1021.1
20260905221836 69 157 3.0 9.0 0.00 0.00 0.00 63 1021.1
20260905221336 70 187 7.0 9.0 0.00 0.00 0.00 63 1021.0
20260905220836 70 184 5.0 7.0 0.00 0.00 0.00 63 1021.1
20260905220336 70 167 4.0 7.0 0.00 0.00 0.00 62 1021.1
20260905215835 70 174 6.0 8.0 0.00 0.00 0.00 62 1021.1
20260905215335 70 163 4.0 9.0 0.00 0.00 0.00 62 1021.0
20260905214835 70 160 3.0 8.0 0.00 0.00 0.00 62 1021.0
20260905214334 70 167 4.0 7.0 0.00 0.00 0.00 62 1021.1
20260905213834 70 157 5.0 7.0 0.00 0.00 0.00 62 1021.1
20260905213334 70 177 5.0 8.0 0.00 0.00 0.00 62 1021.0
20260905212833 70 157 3.0 10.0 0.00 0.00 0.00 62 1021.0
20260905212333 70 163 5.0 10.0 0.00 0.00 0.00 63 1021.1
20260905211833 70 168 4.0 8.0 0.00 0.00 0.00 63 1021.2
20260905211333 70 163 4.0 11.0 0.00 0.00 0.00 62 1021.0
20260905210832 70 184 6.0 9.0 0.00 0.00 0.00 61 1021.0
20260905210332 70 172 5.0 10.0 0.00 0.00 0.00 60 1020.9
20260905205832 70 168 5.0 9.0 0.00 0.00 0.00 61 1020.9
20260905205331 70 165 4.0 10.0 0.00 0.00 0.00 62 1021.0
20260905204831 70 167 5.0 7.0 0.00 0.00 0.00 64 1021.0
20260905204331 70 163 3.0 9.0 0.00 0.00 0.00 63 1021.0
20260905203831 70 189 4.0 8.0 0.00 0.00 0.00 63 1020.9
20260905203330 70 178 4.0 8.0 0.00 0.00 0.00 64 1020.9
20260905202830 70 177 4.0 8.0 0.00 0.00 0.00 64 1020.9
20260905202330 70 180 7.0 10.0 0.00 0.00 0.00 65 1020.8
20260905201829 70 174 6.0 8.0 0.00 0.00 0.00 65 1020.9
20260905201329 69 154 5.0 9.0 0.00 0.00 0.00 66 1020.9
20260905200829 69 175 5.0 8.0 0.00 0.00 0.00 68 1020.8
20260905200329 70 184 6.0 9.0 0.00 0.00 0.00 66 1020.9
20260905195828 70 153 5.0 8.0 0.00 0.00 0.00 66 1020.8
20260905195328 69 163 4.0 8.0 0.00 0.00 0.00 67 1020.7
20260905194828 69 161 5.0 9.0 0.00 0.00 0.00 68 1020.6
20260905194327 69 164 4.0 9.0 0.00 0.00 0.00 68 1020.6
20260905193827 70 168 7.0 8.0 0.00 0.00 0.00 68 1020.4
20260905193327 70 181 6.0 10.0 0.00 0.00 0.00 69 1020.4
20260905192827 70 185 3.0 8.0 0.00 0.00 0.00 68 1020.3
20260905192326 70 181 5.0 8.0 0.00 0.00 0.00 67 1020.2
20260905191826 70 180 3.0 7.0 0.00 0.00 0.00 69 1020.1
20260905191326 69 177 6.0 7.0 0.00 0.00 0.00 71 1020.1
20260905190825 70 167 4.0 8.0 0.00 0.00 0.00 72 1020.1
20260905190325 70 170 4.0 8.0 0.00 0.00 0.00 71 1020.1
20260905185825 70 157 7.0 7.0 0.00 0.00 0.00 71 1020.2
20260905185325 70 157 4.0 8.0 0.00 0.00 0.00 70 1020.2
20260905184824 70 184 6.0 8.0 0.00 0.00 0.00 69 1020.0
20260905184324 70 160 3.0 9.0 0.00 0.00 0.00 69 1019.9
20260905183824 70 177 6.0 7.0 0.00 0.00 0.00 69 1019.8
20260905183323 70 161 4.0 7.0 0.00 0.00 0.00 68 1019.8
20260905182823 70 196 5.0 9.0 0.00 0.00 0.00 68 1019.6
20260905182323 70 187 4.0 8.0 0.00 0.00 0.00 69 1019.6
20260905181822 70 164 4.0 6.0 0.00 0.00 0.00 69 1019.6
20260905180822 71 171 4.0 7.0 0.00 0.00 0.00 68 1019.5
20260905180322 71 157 3.0 7.0 0.00 0.00 0.00 68 1019.4
20260905175821 71 171 6.0 8.0 0.00 0.00 0.00 68 1019.4
20260905175321 71 177 4.0 7.0 0.00 0.00 0.00 68 1019.2
20260905174821 71 168 5.0 7.0 0.00 0.00 0.00 68 1019.1
20260905174320 71 181 4.0 7.0 0.00 0.00 0.00 67 1019.1
20260905173820 72 163 3.0 7.0 0.00 0.00 0.00 66 1019.1
20260905173320 72 168 2.0 5.0 0.00 0.00 0.00 65 1019.0
20260905172820 72 181 4.0 6.0 0.00 0.00 0.00 65 1019.0
20260905172319 72 184 3.0 7.0 0.00 0.00 0.00 64 1018.9
20260905171819 73 185 6.0 7.0 0.00 0.00 0.00 62 1018.8
20260905171319 73 181 5.0 7.0 0.00 0.00 0.00 61 1018.7
20260905170818 73 161 4.0 8.0 0.00 0.00 0.00 61 1018.7
20260905170318 73 157 4.0 8.0 0.00 0.00 0.00 61 1018.7
20260905165818 73 185 6.0 7.0 0.00 0.00 0.00 61 1018.6
20260905165318 74 144 4.0 7.0 0.00 0.00 0.00 61 1018.6
20260905164817 74 164 4.0 5.0 0.00 0.00 0.00 61 1018.6
20260905164317 74 164 2.0 7.0 0.00 0.00 0.00 60 1018.5
20260905163817 74 163 3.0 6.0 0.00 0.00 0.00 61 1018.4
20260905163316 74 149 4.0 6.0 0.00 0.00 0.00 60 1018.3
20260905162816 75 165 3.0 6.0 0.00 0.00 0.00 61 1018.2
20260905162316 75 158 2.0 5.0 0.00 0.00 0.00 60 1018.2
20260905161816 75 154 3.0 6.0 0.00 0.00 0.00 59 1018.1
20260905161315 75 172 3.0 8.0 0.00 0.00 0.00 59 1018.1
20260905160815 76 157 3.0 7.0 0.00 0.00 0.00 58 1018.1
20260905160315 76 178 2.0 5.0 0.00 0.00 0.00 58 1018.1
20260905155814 76 167 2.0 7.0 0.00 0.00 0.00 58 1018.1
20260905155314 76 171 5.0 5.0 0.00 0.00 0.00 58 1017.9
20260905154814 77 170 3.0 6.0 0.00 0.00 0.00 56 1017.9
20260905154313 78 146 3.0 5.0 0.00 0.00 0.00 53 1017.9
20260905153813 79 177 2.0 5.0 0.00 0.00 0.00 49 1017.8
20260905153313 81 358 0.0 0.0 0.00 0.00 0.00 49 1017.8
20260905152813 82 358 0.0 0.0 0.00 0.00 0.00 45 1017.8
20260905152313 82 358 0.0 0.0 0.00 0.00 0.00 46 1017.9
20260905151812 82 358 0.0 0.0 0.00 0.00 0.00 46 1017.9
20260905151312 82 14 0.0 0.0 0.00 0.00 0.00 45 1017.9
20260905150811 82 14 0.0 0.0 0.00 0.00 0.00 44 1017.8
20260905150311 83 101 0.0 0.0 0.00 0.00 0.00 45 1017.8
20260905145811 83 195 0.0 3.0 0.00 0.00 0.00 42 1017.8
20260905145311 83 12 0.0 0.0 0.00 0.00 0.00 44 1017.6
20260905144810 83 12 0.0 2.0 0.00 0.00 0.00 44 1017.6
20260905144310 83 306 1.0 2.0 0.00 0.00 0.00 43 1017.5
20260905143810 82 262 0.0 2.0 0.00 0.00 0.00 44 1017.5
20260905143309 82 239 1.0 3.0 0.00 0.00 0.00 44 1017.4
20260905142809 83 215 2.0 4.0 0.00 0.00 0.00 46 1017.4
20260905142309 84 223 0.0 1.0 0.00 0.00 0.00 44 1017.5
20260905141809 84 222 0.0 3.0 0.00 0.00 0.00 44 1017.5
20260905141308 83 233 2.0 3.0 0.00 0.00 0.00 44 1017.6
20260905140808 84 188 2.0 6.0 0.00 0.00 0.00 41 1017.5
20260905140308 84 151 0.0 2.0 0.00 0.00 0.00 41 1017.5
20260905135807 84 293 0.0 3.0 0.00 0.00 0.00 40 1017.6
20260905135307 84 11 1.0 3.0 0.00 0.00 0.00 41 1017.6
20260905134807 84 108 0.0 0.0 0.00 0.00 0.00 40 1017.6
20260905134306 84 174 0.0 2.0 0.00 0.00 0.00 40 1017.6
20260905133806 84 337 0.0 2.0 0.00 0.00 0.00 40 1017.7
20260905133306 83 192 2.0 3.0 0.00 0.00 0.00 40 1017.6
20260905132806 84 14 0.0 2.0 0.00 0.00 0.00 39 1017.6
20260905132306 84 14 0.0 3.0 0.00 0.00 0.00 38 1017.6
20260905131805 84 247 2.0 2.0 0.00 0.00 0.00 40 1017.6
20260905131305 84 178 0.0 2.0 0.00 0.00 0.00 41 1017.5
20260905130805 84 215 1.0 2.0 0.00 0.00 0.00 40 1017.5
20260905130304 84 194 0.0 2.0 0.00 0.00 0.00 40 1017.6
20260905125804 84 220 0.0 2.0 0.00 0.00 0.00 37 1017.5
20260905125306 84 140 0.0 3.0 0.00 0.00 0.00 38 1017.6
20260905124803 83 341 0.0 3.0 0.00 0.00 0.00 39 1017.6
20260905124303 83 189 3.0 3.0 0.00 0.00 0.00 41 1017.8
20260905123803 83 217 3.0 4.0 0.00 0.00 0.00 39 1017.8
20260905123302 84 202 2.0 4.0 0.00 0.00 0.00 42 1017.9
20260905122802 84 248 2.0 4.0 0.00 0.00 0.00 40 1017.9
20260905122302 83 4 0.0 2.0 0.00 0.00 0.00 39 1017.9
20260905121802 83 227 0.0 3.0 0.00 0.00 0.00 41 1017.9
20260905121301 82 344 0.0 4.0 0.00 0.00 0.00 40 1017.9
20260905120801 83 253 0.0 2.0 0.00 0.00 0.00 39 1018.1
20260905120301 82 222 1.0 1.0 0.00 0.00 0.00 42 1018.1
20260905115800 82 244 0.0 4.0 0.00 0.00 0.00 44 1018.1
20260905115300 81 219 4.0 4.0 0.00 0.00 0.00 44 1017.9
20260905114800 81 226 1.0 2.0 0.00 0.00 0.00 42 1017.9
20260905114300 80 59 0.0 2.0 0.00 0.00 0.00 43 1018.1
20260905113759 80 32 0.0 1.0 0.00 0.00 0.00 43 1018.1
20260905113259 80 35 1.0 1.0 0.00 0.00 0.00 42 1018.1
20260905112759 81 338 0.0 0.0 0.00 0.00 0.00 44 1018.1
20260905112258 80 338 0.0 0.0 0.00 0.00 0.00 45 1018.1
20260905111758 80 284 0.0 1.0 0.00 0.00 0.00 45 1018.1
20260905111258 80 19 1.0 2.0 0.00 0.00 0.00 45 1018.1
20260905110758 80 18 0.0 1.0 0.00 0.00 0.00 46 1018.1
20260905110257 80 2 0.0 2.0 0.00 0.00 0.00 45 1017.9
20260905105757 80 225 1.0 3.0 0.00 0.00 0.00 46 1017.9
20260905105257 79 223 2.0 5.0 0.00 0.00 0.00 45 1017.9
20260905104756 79 222 0.0 5.0 0.00 0.00 0.00 46 1018.1
20260905104256 79 232 4.0 4.0 0.00 0.00 0.00 47 1018.1
20260905103756 78 251 0.0 2.0 0.00 0.00 0.00 48 1018.2
20260905103256 77 236 0.0 1.0 0.00 0.00 0.00 49 1018.2
20260905102755 77 39 0.0 3.0 0.00 0.00 0.00 49 1018.2
20260905102255 76 213 0.0 3.0 0.00 0.00 0.00 50 1018.2
20260905101755 76 230 1.0 4.0 0.00 0.00 0.00 49 1018.2
20260905101254 76 230 2.0 5.0 0.00 0.00 0.00 52 1018.1
20260905100754 75 209 2.0 4.0 0.00 0.00 0.00 52 1018.1
20260905100254 75 220 1.0 3.0 0.00 0.00 0.00 53 1018.2
20260905095753 75 217 0.0 1.0 0.00 0.00 0.00 52 1018.3
20260905095253 75 264 0.0 1.0 0.00 0.00 0.00 52 1018.3
20260905094753 75 241 0.0 1.0 0.00 0.00 0.00 51 1018.3
20260905094253 75 355 1.0 1.0 0.00 0.00 0.00 50 1018.2
20260905093752 75 345 0.0 0.0 0.00 0.00 0.00 51 1018.1
20260905093252 75 0 0.0 0.0 0.00 0.00 0.00 52 1018.2
20260905092752 75 192 0.0 0.0 0.00 0.00 0.00 54 1018.2
20260905092251 75 192 0.0 2.0 0.00 0.00 0.00 57 1018.1
20260905091751 75 198 1.0 2.0 0.00 0.00 0.00 56 1017.9
20260905091251 74 220 0.0 0.0 0.00 0.00 0.00 58 1018.1
20260905090751 74 16 0.0 0.0 0.00 0.00 0.00 57 1018.1
20260905090250 74 202 0.0 0.0 0.00 0.00 0.00 57 1018.1
20260905085750 74 202 0.0 0.0 0.00 0.00 0.00 58 1018.1
20260905085250 74 202 0.0 0.0 0.00 0.00 0.00 59 1017.9
20260905084749 74 174 0.0 0.0 0.00 0.00 0.00 59 1017.9
20260905084249 74 216 0.0 0.0 0.00 0.00 0.00 61 1017.9
20260905083749 74 216 0.0 0.0 0.00 0.00 0.00 59 1017.9
20260905083249 74 216 0.0 0.0 0.00 0.00 0.00 60 1017.9
20260905082748 74 216 0.0 0.0 0.00 0.00 0.00 62 1017.8
20260905082248 74 216 0.0 0.0 0.00 0.00 0.00 61 1017.8
20260905081748 74 216 0.0 0.0 0.00 0.00 0.00 62 1017.8
20260905081247 74 216 0.0 2.0 0.00 0.00 0.00 62 1017.6
20260905080747 73 222 1.0 1.0 0.00 0.00 0.00 65 1017.5
20260905080247 73 220 0.0 1.0 0.00 0.00 0.00 67 1017.5
20260905075746 73 12 0.0 0.0 0.00 0.00 0.00 65 1017.4
20260905075246 73 12 0.0 0.0 0.00 0.00 0.00 65 1017.5
20260905074746 73 12 0.0 0.0 0.00 0.00 0.00 65 1017.4
20260905074246 73 12 0.0 0.0 0.00 0.00 0.00 67 1017.5
20260905073745 73 12 0.0 1.0 0.00 0.00 0.00 73 1017.5
20260905073245 72 223 1.0 1.0 0.00 0.00 0.00 76 1017.5
20260905072745 72 195 1.0 1.0 0.00 0.00 0.00 78 1017.4
20260905072244 72 254 0.0 0.0 0.00 0.00 0.00 72 1017.4
20260905071744 72 254 0.0 0.0 0.00 0.00 0.00 71 1017.3
20260905071244 72 254 0.0 0.0 0.00 0.00 0.00 72 1017.2
20260905070744 72 254 0.0 0.0 0.00 0.00 0.00 73 1017.2
20260905070243 71 254 0.0 0.0 0.00 0.00 0.00 75 1017.1
20260905065743 70 254 0.0 0.0 0.00 0.00 0.00 76 1017.1
20260905065243 70 254 0.0 0.0 0.00 0.00 0.00 77 1017.1
20260905064742 70 254 0.0 0.0 0.00 0.00 0.00 73 1017.1
20260905064242 70 177 0.0 1.0 0.00 0.00 0.00 73 1017.2
20260905063742 71 248 0.0 4.0 0.00 0.00 0.00 72 1017.1
20260905063242 71 174 0.0 2.0 0.00 0.00 0.00 74 1017.1
20260905062741 70 275 0.0 2.0 0.00 0.00 0.00 72 1017.0
20260905062241 70 347 1.0 3.0 0.00 0.00 0.00 72 1016.9
20260905061741 70 251 2.0 3.0 0.00 0.00 0.00 73 1017.0
20260905061240 70 178 0.0 0.0 0.00 0.00 0.00 73 1016.9
20260905060740 70 178 0.0 1.0 0.00 0.00 0.00 74 1016.8
20260905060240 69 170 0.0 1.0 0.00 0.00 0.00 75 1016.8